"Pseudo-MPEC" for C3ZYW92

Created 2020 Nov 23 6:07:21 UT using Find_Orb

Click here for an explanation of pseudo-MPECs

 
 Astrometry: 
     C3ZYW92  C2020 11 22.29608604 21 43.55 +31 59 13.0    ~BM7q       VNEOCPG96
     C3ZYW92  C2020 11 22.30117304 21 42.82 +31 59 18.9    ~BM7q 20.49GVNEOCPG96
     C3ZYW92  C2020 11 22.30625604 21 42.15 +31 59 24.5    ~BM7q 20.30GVNEOCPG96
     C3ZYW92  C2020 11 22.31134304 21 41.49 +31 59 30.4    ~BM7q 20.43GVNEOCPG96
     C3ZYW92 mC2020 11 22.32837604 21 39.26 +31 59 51.0    ~BM87 19.53GVNEOCPI52
     C3ZYW92 mC2020 11 22.33076004 21 38.94 +31 59 53.1    ~BM87 19.96GVNEOCPI52
     C3ZYW92 mC2020 11 22.33152804 21 38.85 +31 59 54.4    ~BM87 19.86GVNEOCPI52
     C3ZYW92 mC2020 11 22.38558004 21 31.67 +32 00 56.8    ~BM9b 19.93GVNEOCPI52
     C3ZYW92 mC2020 11 22.38853904 21 31.30 +32 01 00.6    ~BM9b 20.47GVNEOCPI52
     C3ZYW92 mC2020 11 22.38930704 21 31.23 +32 01 01.4    ~BM9b 20.85GVNEOCPI52
     C3ZYW92 hC2020 11 22g5b^T'2'y@HwKBcT0QW+P@kg89;O:EOaU)igdAstrometryBag?3L01
     C3ZYW92 hC2020 11 22/)As]s+h#%YjrM+Gg+dpF?Ti`1H_Q[o4BquM9R-MB%T(LAg6k3/EL01
     C3ZYW92 hC2020 11 22#phr#sSL-/IXredacted;_PL7]y4bS5N]%?p5?M_7p1niuQMD/ftL01
     C3ZYW92 hC2020 11 225$X4ltAb/oE5io$bw=ymNm\lh3sfwclick`a2s!dmBLWlqF5@$w=L01
     C3ZYW92 KC2020 11 23.18429704 19 50.10 +32 16 20.1    ~BN4q 20.57GVNEOCPI52
     C3ZYW92 KC2020 11 23.18716604 19 49.71 +32 16 23.8    ~BN4q 21.00GVNEOCPI52
     C3ZYW92 KC2020 11 23.19003604 19 49.27 +32 16 26.8    ~BN4q 20.94GVNEOCPI52
     C3ZYW92 KC2020 11 23AP0ICGofZB,1\mx@ydhujEgak\oSyjhere)0mMWbmk^yWAGUAA.`H21
     C3ZYW92 KC2020 11 23/)PTKlyMNH'M807+7HG^n,8KM9HZ4bDqmxB_RJgforQ:9;,x-.FEH21
     C3ZYW92 KC2020 11 23,]M3P-51uxUmE-iexplanation*_9q:DeS:K+!Z+F\7^d$4qnEGFH21

Station data:
(G96) Mt. Lemmon Survey  (N32.442754 W110.788720)  US/Arizona.  Observers T.
   A. Pruyne, B. M. Africano, E. J. Christensen, G. A. Farneth, D. C. Fuls,
   A. R. Gibbs, A. D. Grauer, H. Gröller, J. A. Johnson, R. A. Kowalski, S.
   M. Larson, G. J. Leonard, D. Rankin, R. L. Seaman, F. C. Shelly. 1.5-m
   reflector + 10K CCD.
(H21) Astronomical Research Observatory, Westfield  (N39.483057 W87.968270)
   US/Illinois. 0.76-m f/3.0 astrograph + CCD.
(I52) Steward Observatory, Mt. Lemmon Station  (N32.442547 W110.788920)
   US/Arizona.  Observers T. A. Pruyne, B. M. Africano, E. J. Christensen, G.
   A. Farneth, D. C. Fuls, A. R. Gibbs, A. D. Grauer, H. Gröller, J. A.
   Johnson, R. A. Kowalski, S. M. Larson, G. J. Leonard, D. Rankin, R. L.
   Seaman, F. C. Shelly. 1.0-m reflector + CCD.
(L01) Višnjan Observatory, Tičan  (N45.290900 E13.749300)  Croatia.
   Observers K. Korlević, E. Pettarin. Measurer E. Pettarin. 1.0-m f/2.9
   reflector + CCD.

Orbital elements:  C3ZYW92
   Perihelion 2020 Jun 11.822166 +/- 7.53 TT = 19:43:55 (JD 2459012.322166)
Epoch 2020 Nov 23.0 TT = JDT 2459176.5   Earth MOID: 0.7630   AutoNEOCP
M  58.69454048 +/- 5.1              (J2000 ecliptic)
n   0.35750587 +/- 0.0245           Peri.  295.30918 +/- 1.7
a   1.96613767 +/- 0.09             Node    54.99867 +/- 0.6
e   0.1558312 +/- 0.0606            Incl.   27.78097 +/- 2.2
P   2.76                   H 19.1   G  0.15   U 10.3  
q 1.65975202 +/- 0.083    Q 2.27252333 +/- 0.204
From 20 observations 2020 Nov. 22-23 (22.2 hr); mean residual 0".34
Residuals in arcseconds: 
201122 G96  .52+  .15+    201122 I52  .52-  .21-    201123 I52  .14+  .51-    
201122 G96  .24-  .08+    201122 I52  .27-  .17+    201123 I52  .02-  .17-    
201122 G96  .23-  .27-    201122 I52  .12+  .09+    201123 I52  .81-  .52-    
201122 G96  .09-  .32-    201122 L01  .75+  .65+    201123 H21  .10-  .02-    
201122 I52  .12+  .38+    201122 L01  .29+  .59+    201123 H21  .20-  .01+    
201122 I52  .05+  .30-    201122 L01  .29-  .34-    201123 H21  .37+  .30+    
201122 I52  .19+  .11+    201122 L01  .10-  .18-    

Ephemerides (geocentric):
Date (UTC) HH   RA              Dec         delta   r     elong  mag " sig PA
---- -- -- --  -------------   -----------  ------ ------ -----  --- ---- ---
2020 11 23 06  04 19 41.144   +32 17 37.48  .87097 1.8464 167.0 20.7 .223 110
2020 11 23 07  04 19 35.781   +32 18 25.24  .87102 1.8465 167.0 20.7 .235 106
2020 11 23 08  04 19 30.417   +32 19 12.96  .87107 1.8466 167.0 20.7 .247 103
2020 11 23 09  04 19 25.051   +32 20 00.64  .87112 1.8467 167.0 20.7 .261  99
2020 11 23 10  04 19 19.684   +32 20 48.28  .87117 1.8467 167.0 20.7 .275  96
2020 11 23 11  04 19 14.314   +32 21 35.87  .87123 1.8468 167.1 20.7 .290  92
2020 11 23 12  04 19 08.944   +32 22 23.43  .87128 1.8469 167.1 20.7 .306  89
2020 11 23 13  04 19 03.571   +32 23 10.94  .87133 1.8470 167.1 20.7 .324  86
2020 11 23 14  04 18 58.197   +32 23 58.41  .87139 1.8471 167.1 20.7 .342  83
2020 11 23 15  04 18 52.821   +32 24 45.84  .87144 1.8471 167.1 20.7 .362  80
2020 11 23 16  04 18 47.444   +32 25 33.23  .87149 1.8472 167.2 20.7 .383  77
2020 11 23 17  04 18 42.065   +32 26 20.58  .87155 1.8473 167.2 20.7 .405  75
2020 11 23 18  04 18 36.685   +32 27 07.89  .87161 1.8474 167.2 20.7 .429  72
2020 11 23 19  04 18 31.303   +32 27 55.15  .87166 1.8474 167.2 20.7 .453  70
2020 11 23 20  04 18 25.919   +32 28 42.37  .87172 1.8475 167.2 20.7 .480  67
2020 11 23 21  04 18 20.534   +32 29 29.55  .87178 1.8476 167.2 20.7 .507  65
2020 11 23 22  04 18 15.148   +32 30 16.69  .87183 1.8477 167.3 20.7 .536  63
2020 11 23 23  04 18 09.760   +32 31 03.78  .87189 1.8478 167.3 20.7 .566  61
2020 11 24 00  04 18 04.370   +32 31 50.84  .87195 1.8478 167.3 20.7 .597  59
2020 11 24 01  04 17 58.980   +32 32 37.85  .87201 1.8479 167.3 20.7 .630  57
2020 11 24 02  04 17 53.587   +32 33 24.82  .87207 1.8480 167.3 20.7 .664  56
2020 11 24 03  04 17 48.194   +32 34 11.74  .87213 1.8481 167.3 20.7 .699  54
2020 11 24 04  04 17 42.799   +32 34 58.63  .87219 1.8481 167.3 20.7 .735  53
2020 11 24 05  04 17 37.402   +32 35 45.47  .87225 1.8482 167.4 20.7 .773  51
2020 11 24 06  04 17 32.004   +32 36 32.26  .87231 1.8483 167.4 20.7 .812  50
2020 11 24 07  04 17 26.605   +32 37 19.02  .87238 1.8484 167.4 20.7 .853  48
2020 11 24 08  04 17 21.205   +32 38 05.73  .87244 1.8485 167.4 20.7 .895  47
2020 11 24 09  04 17 15.803   +32 38 52.40  .87250 1.8485 167.4 20.7 .938  46
2020 11 24 10  04 17 10.400   +32 39 39.03  .87257 1.8486 167.4 20.7 .982  45
2020 11 24 11  04 17 04.996   +32 40 25.61  .87263 1.8487 167.4 20.7 1.03  44
2020 11 24 12  04 16 59.590   +32 41 12.15  .87269 1.8488 167.4 20.7 1.07  43
2020 11 24 13  04 16 54.183   +32 41 58.65  .87276 1.8489 167.5 20.7 1.12  42
2020 11 24 14  04 16 48.775   +32 42 45.10  .87283 1.8489 167.5 20.7 1.17  41
2020 11 24 15  04 16 43.366   +32 43 31.51  .87289 1.8490 167.5 20.7 1.22  40
2020 11 24 16  04 16 37.955   +32 44 17.88  .87296 1.8491 167.5 20.7 1.27  39
2020 11 24 17  04 16 32.543   +32 45 04.20  .87303 1.8492 167.5 20.7 1.33  38
2020 11 24 18  04 16 27.130   +32 45 50.49  .87309 1.8492 167.5 20.7 1.38  37
2020 11 24 19  04 16 21.716   +32 46 36.72  .87316 1.8493 167.5 20.7 1.44  36
2020 11 24 20  04 16 16.301   +32 47 22.92  .87323 1.8494 167.5 20.7 1.50  35
2020 11 24 21  04 16 10.885   +32 48 09.07  .87330 1.8495 167.5 20.7 1.55  35
2020 11 24 22  04 16 05.467   +32 48 55.17  .87337 1.8496 167.6 20.7 1.61  34
2020 11 24 23  04 16 00.049   +32 49 41.23  .87344 1.8496 167.6 20.7 1.67  33
2020 11 25 00  04 15 54.629   +32 50 27.25  .87351 1.8497 167.6 20.7 1.74  33
2020 11 25 01  04 15 49.208   +32 51 13.23  .87358 1.8498 167.6 20.7 1.80  32
2020 11 25 02  04 15 43.787   +32 51 59.16  .87365 1.8499 167.6 20.7 1.87  31
2020 11 25 03  04 15 38.364   +32 52 45.04  .87373 1.8499 167.6 20.7 1.93  31
2020 11 25 04  04 15 32.940   +32 53 30.88  .87380 1.8500 167.6 20.7 2.00  30
2020 11 25 05  04 15 27.515   +32 54 16.68  .87387 1.8501 167.6 20.7 2.07  29